#timestamp,LO_Frequency,Hit,StdDev 
1681308015.2,286046997.2,N
1681308035.0,286046999.3,N
1681308035.9,286046999.3,N
1681308055.8,286047000.8,N
1681308075.6,286046998.5,N
1681308095.4,286046998.5,N
1681308115.3,286046998.8,N
1681308135.1,286047001.2,N
1681308155.9,286046999.2,N
1681308175.7,286046999.3,N
1681308195.5,286046998.6,N
1681308215.4,286046999.6,N
1681308235.2,286046997.4,N
1681308255.0,286046996.6,N
1681308255.9,286046996.6,N
1681308275.8,286046998.7,N
1681308295.6,286046999.4,N
1681308315.5,286046998.2,N
1681308335.3,286046998.6,N
1681308355.1,286046999.0,N
1681308375.9,286046998.7,N
1681308395.7,286046998.2,N
1681308415.5,286046999.9,N
1681308435.4,286047004.6,Y
1681308455.2,286047012.2,P
1681308475.1,286047011.7,N
1681308476.0,286047011.7,N
1681308495.8,286047007.7,N
1681308515.6,286047012.2,N
1681308535.5,286047011.8,N
1681308555.3,286047006.1,N
1681308575.2,286047008.5,N
1681308595.9,286047005.5,N
1681308615.7,286047002.0,N
1681308635.6,286047002.2,N
1681308655.4,286047002.1,N
1681308675.3,286047001.6,N
1681308695.1,286047002.0,N
1681308696.0,286047002.0,N
1681308715.8,286047001.9,N
1681308735.7,286047001.4,N
1681308755.5,286047004.4,N
1681308775.3,286047003.1,N
1681308795.2,286047005.6,N
1681308815.0,286047002.9,N
1681308815.9,286047002.9,N
1681308835.8,286047003.4,N
1681308855.6,286047003.1,N
1681308875.4,286047006.0,N
1681308895.3,286047004.1,N
1681308915.1,286047004.2,N
1681308935.9,286047003.8,N
1681308955.7,286047003.7,N
1681308975.5,286047001.5,N
1681308995.4,286047001.3,N
1681309015.2,286047003.8,N
1681309035.0,286047003.9,N
1681309035.9,286047003.9,N
1681309055.8,286047001.5,N
1681309075.6,286047003.8,N
1681309095.5,286047003.8,N
1681309115.3,286047004.2,N
1681309135.1,286047003.8,N
1681309155.9,286047003.8,Y
1681309175.7,286046999.7,P
1681309195.6,286047000.6,N
1681309215.4,286046998.7,N
1681309235.2,286046998.9,N
1681309255.1,286046999.0,N
1681309256.0,286046999.0,N
1681309275.8,286047000.6,N
1681309295.7,286047000.7,N
1681309315.5,286047000.2,N
1681309335.3,286047000.1,N
1681309355.2,286047001.8,N
1681309375.0,286047001.5,N
1681309375.9,286047001.5,N
1681309395.8,286047002.6,N
1681309415.6,286047002.3,N
1681309435.4,286047000.0,N
1681309455.3,286047002.7,N
1681309475.1,286046999.8,N
1681309495.8,286046999.7,N
1681309515.7,286047002.2,N
1681309535.5,286047000.2,N
1681309555.4,286047002.3,N
1681309575.2,286047001.9,N
1681309595.0,286047002.0,N
1681309595.9,286047002.0,N
1681309615.8,286047002.3,N
1681309635.6,286047001.7,N
1681309655.5,286047001.7,N
1681309675.3,286047001.5,N
1681309695.1,286047004.4,Y
1681309715.9,286047001.9,P
1681309735.7,286047002.7,P
1681309755.9,286047000.5,N
1681309775.7,286047000.6,N
1681309795.6,286047000.4,N
1681309815.4,286047002.1,N
1681309835.2,286047004.0,Y
1681309855.1,286047002.7,P
1681309856.0,286047002.7,P
1681309875.8,286047004.0,P
1681309895.7,286047004.2,Y
1681309915.5,286046998.3,P
1681309935.3,286046998.1,N
1681309955.2,286046999.2,N
1681309975.0,286046998.7,N
1681309975.9,286046998.7,N
1681309995.7,286046999.3,N
1681310015.6,286046998.4,N
1681310035.4,286047000.9,N
1681310055.3,286047001.1,N
1681310075.1,286047001.0,N
1681310076.0,286047001.0,N
1681310095.8,286046998.4,N
1681310115.7,286046998.5,N
1681310135.5,286046998.1,N
1681310155.3,286046998.2,N
1681310175.2,286047000.8,N
1681310195.0,286047000.6,N
1681310195.9,286047000.6,N
1681310215.8,286046998.8,N
1681310235.6,286046998.5,N
1681310255.4,286047000.5,N
1681310275.3,286047001.2,N
1681310295.1,286047001.2,N
1681310315.8,286047001.2,N
1681310335.7,286047001.2,N
1681310355.5,286046998.3,N
1681310375.4,286047001.1,N
1681310395.2,286046999.0,N
1681310415.0,286046998.9,N
1681310415.9,286046998.9,N
1681310435.8,286046998.4,N
1681310455.6,286046998.4,N
1681310475.4,286046998.6,N
1681310495.3,286046998.4,N
1681310515.1,286046998.5,N
1681310535.9,286046998.1,N
1681310555.7,286047000.6,N
1681310575.5,286046999.8,N
1681310595.4,286046999.9,N
1681310615.2,286047002.5,N
1681310635.0,286046999.8,N
1681310636.0,286046999.8,N
1681310655.8,286047000.2,N
1681310675.6,286047002.6,N
1681310695.5,286046999.9,N
1681310715.3,286047000.6,N
1681310735.1,286047000.5,N
1681310755.9,286047000.0,N
1681310775.7,286046999.8,N
1681310795.5,286047002.7,N
1681310815.4,286047002.3,N
1681310835.2,286047002.4,N
1681310855.1,286047002.7,N
1681310856.0,286047002.7,N
1681310875.8,286047002.8,N
1681310895.6,286047002.7,N
1681310915.5,286047002.3,N
1681310935.3,286047002.1,N
1681310955.2,286047002.2,N
1681310975.9,286047002.6,N
1681310995.7,286047000.0,N
1681311015.6,286046999.7,N
1681311035.4,286047002.1,N
1681311055.3,286047002.2,N
1681311075.1,286047000.0,N
1681311076.0,286047000.0,N
1681311095.8,286046999.8,N
1681311115.7,286047002.3,N
1681311135.5,286047002.6,N
1681311155.3,286047002.6,N
1681311175.2,286047002.3,N
1681311195.0,286047002.3,N
1681311195.9,286047002.3,N
1681311215.8,286047004.4,Y
1681311235.6,286047000.3,P
1681311255.4,286047000.0,N
1681311275.3,286047000.3,N
1681311295.1,286047000.1,N
1681311315.9,286047000.7,N
1681311335.7,286047001.0,N
1681311355.5,286047000.5,N
1681311405.4,286047001.1,E
1681311415.3,286046998.8,N
1681311435.2,286046998.7,P
1681311455.9,286046998.9,P
1681311475.7,286046998.4,Y
1681311495.6,286046999.9,P
1681311515.4,286047000.2,N
1681311535.2,286047000.0,N
1681311555.1,286047001.0,N
1681311556.0,286047001.0,N
1681311575.8,286047000.4,N
1681311595.7,286046999.9,N
